{"data":{"norad_id":62814,"epoch":"2026-05-25T04:36:00.014112Z","epoch_age_seconds":48565,"freshness":"FRESH","line1":"1 62814U 25018J   26145.19166683  .00013775  00000+0  45451-3 0  9999","line2":"2 62814  53.1608 314.0794 0000536  96.9010 263.2052 15.31721849 74881","mean_motion":15.31721849,"eccentricity":5.36e-5,"inclination_deg":53.1608,"raan_deg":314.0794,"arg_perigee_deg":96.901,"mean_anomaly_deg":263.2052,"bstar":0.00045451,"rev_number":7488,"period_min":94.011846925088,"perigee_km":470.30776895181,"apogee_km":471.04196158376,"semimajor_km":6848.8118652678,"source":"CELESTRAK","updated_at":"2026-05-25T13:38:19.774636Z"}}